Regional Weather Roundup
Issued by NWS Little Rock, AR

Home | Current Version | Previous Version | Text Only | Print | Product List | Glossary Off
Versions: 1 2 3 4 5 6 7 8 9 10 11 12 13 14 15 16 17 18 19 20 21 22 23 24 25 26 27 28 29 30 31 32 33 34 35 36 37 38 39 40 41 42 43 44 45 46 47 48 49 50

000
ASUS44 KLZK 190505
RWRLZK

WEATHER ROUNDUP FOR ARKANSAS
NATIONAL WEATHER SERVICE LITTLE ROCK AR
1100 PM CST THU JAN 18 2018

NOTE: "FAIR" INDICATES FEW OR NO CLOUDS BELOW 12,000 FEET WITH NO
SIGNIFICANT WEATHER AND/OR OBSTRUCTIONS TO VISIBILITY.

ARZ001-003-010-029-190600-
NORTHWEST ARKANSAS

CITY           SKY/WX    TMP DP  RH WIND       PRES   REMARKS
FAYETTEVILLE   CLOUDY    33   9  36 S12       30.24F WCI  24
FORT SMITH     CLOUDY    27  14  58 NE3       30.31R
HARRISON       CLOUDY    29  10  45 S10       30.21F WCI  20
BENTONVILLE    CLOUDY    32   9  38 S9        30.23F WCI  24
ROGERS         PTCLDY    31  10  41 SW8       30.22F WCI  23
SILOAM SPGS    CLOUDY    29  11  47 S9        30.23F WCI  20
HIGHFILL       PTCLDY    29   7  39 SW6       30.22F WCI  23
$$

ARZ004-005-016-190600-
NORTH CENTRAL ARKANSAS

CITY           SKY/WX    TMP DP  RH WIND       PRES   REMARKS
BATESVILLE     PTCLDY    31  17  56 SW8       30.31F WCI  23
FLIPPIN        CLOUDY    32  10  40 SW8       30.25F WCI  25
MTN HOME       CLOUDY    32  12  43 SW8       30.22F WCI  25
$$

ARZ040-041-190600-
WEST CENTRAL ARKANSAS

CITY           SKY/WX    TMP DP  RH WIND       PRES   REMARKS
MENA           CLOUDY    28  16  59 CALM      30.32F
MOUNT IDA      CLEAR     27  13  55 CALM      30.32R
$$

ARZ009-017-025-026-028-190600-
NORTHEAST ARKANSAS

CITY           SKY/WX    TMP DP  RH WIND       PRES   REMARKS
JONESBORO      FAIR      26  20  77 S8        30.33F WCI  18
NEWPORT        FAIR      25  20  81 S12       30.34F WCI  14
WALNUT RIDGE   FAIR      26  20  77 S12       30.31F WCI  16
BLYTHEVILLE    FAIR      20  19  96 SW9       30.35S WCI   9
$$

ARZ022-023-033-042-044-190600-
CENTRAL ARKANSAS

CITY           SKY/WX    TMP DP  RH WIND       PRES   REMARKS
LITTLE ROCK    CLOUDY    28  17  63 W5        30.37S WCI  23
N LITTLE ROCK    N/A     31  18  60 SW6       30.32F WCI  25
JACKSONVILLE   CLOUDY    28  18  66 S8        30.33F WCI  19
SEARCY         FAIR      19  19 100 S3        30.36F
HOT SPRINGS    CLOUDY    27  14  58 CALM      30.36S
RUSSELLVILLE   CLOUDY    31  12  45 S5        30.31F WCI  26
CLINTON        FAIR      18  14  86 CALM      30.33F
$$

ARZ036-190600-
EAST ARKANSAS

CITY           SKY/WX    TMP DP  RH WIND       PRES   REMARKS
WEST MEMPHIS   FAIR      21  18  88 S8        30.36F WCI  11
$$

ARZ050-053-066-070-073-190600-
SOUTHWEST ARKANSAS

CITY           SKY/WX    TMP DP  RH WIND       PRES   REMARKS
ARKADELPHIA    FAIR      20  17  88 CALM      30.39S
CAMDEN         FAIR      21  16  79 CALM      30.39S
TEXARKANA      CLOUDY    33  16  49 S6        30.36S WCI  28
EL DORADO      FAIR      24  19  81 CALM      30.39F
DE QUEEN       CLOUDY    21  18  88 CALM      30.35S
$$

ARZ056-057-069-190600-
SOUTHEAST ARKANSAS

CITY           SKY/WX    TMP DP  RH WIND       PRES   REMARKS
PINE BLUFF     FAIR      27  17  66 S7        30.39S WCI  19
STUTTGART      FAIR      25  20  81 S8        30.38S WCI  16
MONTICELLO     FAIR      30  16  56 S6        30.39S WCI  24

$$





USA.gov is the U.S. government's official web portal to all federal, state and local government web resources and services.